| time (UTC) | temp F | wind direction | speed MPH | gust MPH | rain 1hr in | rain 24hr in | rain mn in | humidity % | barometer mb |
| 20260508235005 | 49 | 0 | 0.0 | 0.0 | 0.00 | 0.33 | 0.26 | 88 | 1012.2 |
| 20260508234525 | 49 | 0 | 0.0 | 0.0 | 0.00 | 0.33 | 0.26 | 87 | 1012.2 |
| 20260508234004 | 49 | 0 | 0.0 | 0.0 | 0.00 | 0.33 | 0.26 | 87 | 1012.1 |
| 20260508233505 | 50 | 0 | 0.0 | 0.0 | 0.00 | 0.33 | 0.26 | 87 | 1012.0 |
| 20260508233005 | 50 | 0 | 0.0 | 0.0 | 0.00 | 0.33 | 0.26 | 87 | 1012.0 |
| 20260508232504 | 50 | 0 | 0.0 | 0.0 | 0.00 | 0.33 | 0.26 | 86 | 1011.9 |
| 20260508232005 | 50 | 0 | 0.0 | 0.0 | 0.00 | 0.33 | 0.26 | 86 | 1011.7 |
| 20260508231505 | 50 | 0 | 0.0 | 0.0 | 0.00 | 0.33 | 0.26 | 87 | 1011.7 |
| 20260508231005 | 50 | 172 | 0.0 | 1.0 | 0.00 | 0.33 | 0.26 | 87 | 1011.8 |
| 20260508230504 | 50 | 172 | 0.0 | 1.0 | 0.00 | 0.33 | 0.26 | 88 | 1011.9 |
| 20260508230005 | 50 | 172 | 0.0 | 1.0 | 0.00 | 0.33 | 0.26 | 88 | 1012.0 |
| 20260508225504 | 50 | 172 | 0.0 | 3.0 | 0.00 | 0.33 | 0.26 | 88 | 1011.9 |
| 20260508225004 | 50 | 172 | 0.0 | 3.0 | 0.00 | 0.33 | 0.26 | 87 | 1012.0 |
| 20260508224504 | 50 | 172 | 0.0 | 1.0 | 0.00 | 0.33 | 0.26 | 87 | 1011.9 |
| 20260508224004 | 50 | 171 | 0.0 | 1.0 | 0.00 | 0.33 | 0.26 | 85 | 1011.9 |
| 20260508223525 | 50 | 166 | 0.0 | 4.0 | 0.00 | 0.33 | 0.26 | 85 | 1011.9 |
| 20260508223004 | 50 | 167 | 0.0 | 6.0 | 0.00 | 0.33 | 0.26 | 85 | 1011.8 |
| 20260508222525 | 50 | 172 | 1.0 | 6.0 | 0.01 | 0.33 | 0.26 | 86 | 1011.9 |
| 20260508222004 | 51 | 178 | 0.0 | 6.0 | 0.01 | 0.33 | 0.26 | 86 | 1012.0 |
| 20260508221504 | 50 | 184 | 0.0 | 1.0 | 0.01 | 0.33 | 0.26 | 86 | 1012.0 |
| 20260508221005 | 51 | 183 | 0.0 | 1.0 | 0.01 | 0.33 | 0.26 | 85 | 1011.9 |
| 20260508220504 | 50 | 198 | 0.0 | 4.0 | 0.01 | 0.33 | 0.26 | 84 | 1012.0 |
| 20260508220025 | 50 | 171 | 1.0 | 6.0 | 0.01 | 0.33 | 0.26 | 86 | 1012.2 |
| 20260508215525 | 50 | 160 | 3.0 | 10.0 | 0.01 | 0.33 | 0.26 | 85 | 1012.0 |
| 20260508215004 | 50 | 164 | 3.0 | 10.0 | 0.01 | 0.33 | 0.26 | 86 | 1012.0 |
| 20260508214504 | 50 | 174 | 1.0 | 7.0 | 0.01 | 0.33 | 0.26 | 87 | 1012.0 |
| 20260508214026 | 50 | 181 | 1.0 | 9.0 | 0.01 | 0.33 | 0.26 | 90 | 1012.0 |
| 20260508213504 | 50 | 189 | 1.0 | 9.0 | 0.01 | 0.33 | 0.26 | 89 | 1012.1 |
| 20260508213004 | 50 | 188 | 1.0 | 6.0 | 0.01 | 0.33 | 0.26 | 88 | 1012.2 |
| 20260508212504 | 51 | 188 | 1.0 | 4.0 | 0.00 | 0.32 | 0.25 | 88 | 1012.3 |
| 20260508212025 | 51 | 193 | 1.0 | 4.0 | 0.00 | 0.32 | 0.25 | 87 | 1012.3 |
| 20260508211504 | 52 | 188 | 0.0 | 4.0 | 0.00 | 0.32 | 0.25 | 85 | 1012.3 |
| 20260508211004 | 52 | 198 | 1.0 | 4.0 | 0.00 | 0.32 | 0.25 | 83 | 1012.2 |
| 20260508210504 | 52 | 207 | 1.0 | 4.0 | 0.00 | 0.32 | 0.25 | 82 | 1012.2 |
| 20260508210005 | 53 | 212 | 0.0 | 4.0 | 0.00 | 0.32 | 0.25 | 79 | 1012.1 |
| 20260508205504 | 53 | 226 | 0.0 | 4.0 | 0.00 | 0.32 | 0.25 | 75 | 1012.1 |
| 20260508205004 | 54 | 211 | 0.0 | 4.0 | 0.00 | 0.32 | 0.25 | 72 | 1012.0 |
| 20260508204504 | 54 | 209 | 0.0 | 3.0 | 0.00 | 0.32 | 0.25 | 73 | 1012.0 |
| 20260508204005 | 55 | 228 | 1.0 | 3.0 | 0.00 | 0.32 | 0.25 | 68 | 1011.9 |
| 20260508203504 | 56 | 221 | 1.0 | 6.0 | 0.00 | 0.32 | 0.25 | 63 | 1012.0 |
| 20260508203004 | 56 | 241 | 1.0 | 7.0 | 0.00 | 0.32 | 0.25 | 67 | 1012.0 |
| 20260508202504 | 56 | 230 | 3.0 | 7.0 | 0.00 | 0.32 | 0.25 | 68 | 1012.0 |
| 20260508202004 | 56 | 209 | 1.0 | 6.0 | 0.00 | 0.32 | 0.25 | 68 | 1012.1 |
| 20260508201504 | 56 | 217 | 1.0 | 6.0 | 0.00 | 0.32 | 0.25 | 69 | 1012.1 |
| 20260508201004 | 55 | 220 | 1.0 | 4.0 | 0.00 | 0.32 | 0.25 | 71 | 1012.1 |
| 20260508200504 | 54 | 239 | 1.0 | 6.0 | 0.00 | 0.32 | 0.25 | 66 | 1012.2 |
| 20260508200004 | 54 | 238 | 1.0 | 6.0 | 0.00 | 0.32 | 0.25 | 76 | 1012.4 |
| 20260508195504 | 53 | 236 | 1.0 | 6.0 | 0.00 | 0.32 | 0.25 | 78 | 1012.5 |
| 20260508195004 | 53 | 247 | 1.0 | 4.0 | 0.00 | 0.32 | 0.25 | 77 | 1012.5 |
| 20260508194525 | 54 | 277 | 1.0 | 4.0 | 0.00 | 0.32 | 0.25 | 77 | 1012.4 |
| 20260508194004 | 54 | 285 | 1.0 | 4.0 | 0.00 | 0.32 | 0.25 | 79 | 1012.4 |
| 20260508193504 | 53 | 246 | 1.0 | 10.0 | 0.00 | 0.32 | 0.25 | 76 | 1012.4 |
| 20260508193004 | 53 | 241 | 1.0 | 10.0 | 0.02 | 0.32 | 0.25 | 80 | 1012.5 |
| 20260508192504 | 53 | 302 | 1.0 | 4.0 | 0.02 | 0.32 | 0.25 | 83 | 1012.6 |
| 20260508192004 | 52 | 298 | 1.0 | 4.0 | 0.02 | 0.32 | 0.25 | 84 | 1012.6 |
| 20260508191525 | 52 | 258 | 0.0 | 3.0 | 0.02 | 0.32 | 0.25 | 82 | 1012.6 |
| 20260508191025 | 52 | 322 | 1.0 | 12.0 | 0.02 | 0.32 | 0.25 | 79 | 1012.7 |
| 20260508190525 | 53 | 310 | 3.0 | 12.0 | 0.02 | 0.32 | 0.25 | 82 | 1012.7 |
| 20260508190004 | 52 | 181 | 1.0 | 6.0 | 0.02 | 0.32 | 0.25 | 86 | 1012.8 |
| 20260508185504 | 52 | 228 | 1.0 | 6.0 | 0.02 | 0.32 | 0.25 | 88 | 1012.9 |
| 20260508185004 | 51 | 294 | 1.0 | 6.0 | 0.02 | 0.32 | 0.25 | 89 | 1012.9 |
| 20260508184504 | 51 | 305 | 1.0 | 6.0 | 0.02 | 0.32 | 0.25 | 92 | 1012.9 |
| 20260508184004 | 50 | 331 | 1.0 | 6.0 | 0.02 | 0.32 | 0.25 | 89 | 1013.0 |
| 20260508183504 | 51 | 299 | 3.0 | 6.0 | 0.02 | 0.32 | 0.25 | 87 | 1013.2 |
| 20260508183025 | 51 | 288 | 1.0 | 6.0 | 0.00 | 0.30 | 0.23 | 86 | 1013.3 |
| 20260508182504 | 51 | 233 | 0.0 | 4.0 | 0.00 | 0.30 | 0.23 | 86 | 1013.1 |
| 20260508182004 | 51 | 234 | 0.0 | 4.0 | 0.00 | 0.30 | 0.23 | 86 | 1013.2 |
| 20260508181504 | 51 | 241 | 0.0 | 3.0 | 0.00 | 0.30 | 0.23 | 88 | 1013.2 |
| 20260508181004 | 51 | 231 | 0.0 | 3.0 | 0.00 | 0.30 | 0.23 | 89 | 1013.2 |
| 20260508180504 | 50 | 292 | 1.0 | 7.0 | 0.01 | 0.30 | 0.23 | 90 | 1013.4 |
| 20260508180004 | 49 | 311 | 1.0 | 7.0 | 0.01 | 0.30 | 0.23 | 91 | 1013.3 |
| 20260508175504 | 48 | 314 | 1.0 | 10.0 | 0.02 | 0.30 | 0.23 | 92 | 1013.5 |
| 20260508175004 | 48 | 320 | 1.0 | 10.0 | 0.04 | 0.30 | 0.23 | 94 | 1013.3 |
| 20260508174504 | 46 | 266 | 0.0 | 1.0 | 0.05 | 0.30 | 0.23 | 95 | 1013.2 |
| 20260508174004 | 46 | 265 | 0.0 | 3.0 | 0.06 | 0.30 | 0.23 | 93 | 1013.2 |
| 20260508173504 | 46 | 264 | 0.0 | 3.0 | 0.07 | 0.30 | 0.23 | 94 | 1013.5 |
| 20260508173004 | 46 | 269 | 0.0 | 3.0 | 0.08 | 0.30 | 0.23 | 94 | 1013.5 |
| 20260508172504 | 46 | 286 | 1.0 | 4.0 | 0.08 | 0.30 | 0.23 | 95 | 1013.4 |
| 20260508172004 | 46 | 294 | 1.0 | 4.0 | 0.08 | 0.30 | 0.23 | 95 | 1013.4 |
| 20260508171504 | 45 | 290 | 1.0 | 4.0 | 0.08 | 0.30 | 0.23 | 95 | 1013.3 |
| 20260508171004 | 45 | 298 | 1.0 | 4.0 | 0.08 | 0.30 | 0.23 | 95 | 1013.3 |
| 20260508170505 | 45 | 310 | 3.0 | 7.0 | 0.07 | 0.29 | 0.22 | 95 | 1013.3 |
| 20260508170004 | 45 | 302 | 3.0 | 9.0 | 0.07 | 0.29 | 0.22 | 93 | 1013.4 |
| 20260508165504 | 45 | 286 | 3.0 | 9.0 | 0.06 | 0.28 | 0.21 | 91 | 1013.6 |
| 20260508165004 | 45 | 277 | 1.0 | 7.0 | 0.04 | 0.26 | 0.19 | 91 | 1013.5 |
| 20260508164505 | 46 | 307 | 3.0 | 7.0 | 0.03 | 0.25 | 0.18 | 90 | 1013.6 |
| 20260508164004 | 46 | 323 | 4.0 | 13.0 | 0.02 | 0.24 | 0.17 | 88 | 1013.4 |
| 20260508163504 | 47 | 323 | 6.0 | 17.0 | 0.01 | 0.23 | 0.16 | 84 | 1013.3 |
| 20260508163004 | 48 | 333 | 3.0 | 17.0 | 0.00 | 0.22 | 0.15 | 85 | 1013.3 |
| 20260508162504 | 48 | 8 | 0.0 | 4.0 | 0.00 | 0.22 | 0.15 | 88 | 1013.0 |
| 20260508162004 | 48 | 138 | 0.0 | 3.0 | 0.00 | 0.22 | 0.15 | 82 | 1012.8 |
| 20260508161504 | 48 | 151 | 0.0 | 3.0 | 0.00 | 0.22 | 0.15 | 83 | 1012.8 |
| 20260508161004 | 48 | 166 | 0.0 | 3.0 | 0.00 | 0.22 | 0.15 | 86 | 1012.8 |
| 20260508160505 | 48 | 177 | 0.0 | 3.0 | 0.00 | 0.22 | 0.15 | 85 | 1012.7 |
| 20260508160004 | 48 | 313 | 0.0 | 1.0 | 0.00 | 0.22 | 0.15 | 85 | 1012.9 |
| 20260508155504 | 48 | 313 | 0.0 | 1.0 | 0.00 | 0.22 | 0.15 | 86 | 1012.8 |
| 20260508155004 | 48 | 312 | 0.0 | 3.0 | 0.00 | 0.22 | 0.15 | 85 | 1013.0 |
| 20260508154504 | 48 | 305 | 0.0 | 3.0 | 0.00 | 0.22 | 0.15 | 82 | 1013.0 |
| 20260508154005 | 48 | 319 | 0.0 | 3.0 | 0.00 | 0.22 | 0.15 | 82 | 1013.0 |
| 20260508153504 | 47 | 194 | 0.0 | 3.0 | 0.00 | 0.22 | 0.15 | 81 | 1013.0 |
| 20260508153025 | 47 | 269 | 0.0 | 6.0 | 0.00 | 0.22 | 0.15 | 77 | 1013.0 |
| 20260508152504 | 47 | 240 | 1.0 | 6.0 | 0.00 | 0.22 | 0.15 | 83 | 1013.0 |
| 20260508152004 | 47 | 191 | 1.0 | 4.0 | 0.00 | 0.22 | 0.15 | 83 | 1012.9 |
| 20260508151525 | 46 | 197 | 1.0 | 6.0 | 0.00 | 0.22 | 0.15 | 84 | 1013.0 |
| 20260508151004 | 46 | 188 | 3.0 | 9.0 | 0.00 | 0.22 | 0.15 | 85 | 1013.1 |
| 20260508150525 | 46 | 193 | 3.0 | 9.0 | 0.00 | 0.22 | 0.15 | 86 | 1013.0 |
| 20260508150005 | 45 | 213 | 3.0 | 7.0 | 0.00 | 0.22 | 0.15 | 86 | 1013.1 |
| 20260508145504 | 45 | 218 | 3.0 | 7.0 | 0.00 | 0.22 | 0.15 | 90 | 1013.1 |
| 20260508145004 | 45 | 223 | 3.0 | 6.0 | 0.00 | 0.22 | 0.15 | 91 | 1013.2 |
| 20260508144504 | 45 | 238 | 1.0 | 4.0 | 0.00 | 0.22 | 0.15 | 92 | 1013.3 |
| 20260508144025 | 45 | 245 | 1.0 | 4.0 | 0.00 | 0.22 | 0.15 | 92 | 1013.3 |
| 20260508143504 | 45 | 180 | 1.0 | 9.0 | 0.00 | 0.22 | 0.15 | 94 | 1013.3 |
| 20260508143004 | 45 | 173 | 1.0 | 9.0 | 0.00 | 0.22 | 0.15 | 94 | 1013.2 |
| 20260508142504 | 45 | 160 | 1.0 | 6.0 | 0.00 | 0.22 | 0.15 | 96 | 1013.1 |
| 20260508142025 | 44 | 164 | 0.0 | 3.0 | 0.00 | 0.22 | 0.15 | 96 | 1013.2 |
| 20260508141504 | 44 | 173 | 1.0 | 9.0 | 0.00 | 0.22 | 0.15 | 97 | 1013.1 |
| 20260508141004 | 44 | 169 | 0.0 | 9.0 | 0.00 | 0.22 | 0.15 | 97 | 1013.3 |
| 20260508140525 | 44 | 177 | 0.0 | 1.0 | 0.00 | 0.22 | 0.15 | 97 | 1013.4 |
| 20260508140004 | 43 | 0 | 0.0 | 0.0 | 0.00 | 0.22 | 0.15 | 97 | 1013.5 |
| 20260508135505 | 43 | 0 | 0.0 | 0.0 | 0.00 | 0.22 | 0.15 | 98 | 1013.5 |
| 20260508135026 | 43 | 0 | 0.0 | 0.0 | 0.00 | 0.22 | 0.15 | 98 | 1013.7 |
| 20260508134504 | 43 | 0 | 0.0 | 0.0 | 0.00 | 0.22 | 0.15 | 98 | 1013.7 |
| 20260508134025 | 43 | 0 | 0.0 | 0.0 | 0.00 | 0.22 | 0.15 | 98 | 1013.6 |
| 20260508133504 | 43 | 0 | 0.0 | 0.0 | 0.00 | 0.22 | 0.15 | 98 | 1013.7 |
| 20260508133004 | 43 | 0 | 0.0 | 0.0 | 0.00 | 0.22 | 0.15 | 98 | 1013.9 |
| 20260508132504 | 42 | 0 | 0.0 | 0.0 | 0.00 | 0.22 | 0.15 | 98 | 1013.9 |
| 20260508132025 | 42 | 0 | 0.0 | 0.0 | 0.00 | 0.22 | 0.15 | 98 | 1013.8 |
| 20260508131504 | 42 | 0 | 0.0 | 0.0 | 0.00 | 0.22 | 0.15 | 98 | 1013.7 |
| 20260508131004 | 42 | 0 | 0.0 | 0.0 | 0.00 | 0.22 | 0.15 | 98 | 1013.7 |
| 20260508130504 | 42 | 128 | 0.0 | 1.0 | 0.00 | 0.22 | 0.15 | 99 | 1013.6 |
| 20260508130004 | 42 | 152 | 0.0 | 1.0 | 0.00 | 0.22 | 0.15 | 98 | 1013.6 |
| 20260508125504 | 42 | 161 | 0.0 | 1.0 | 0.00 | 0.22 | 0.15 | 99 | 1013.6 |
| 20260508125004 | 42 | 162 | 0.0 | 1.0 | 0.00 | 0.22 | 0.15 | 99 | 1013.6 |
| 20260508124525 | 41 | 162 | 0.0 | 3.0 | 0.00 | 0.22 | 0.15 | 99 | 1013.6 |
| 20260508124004 | 41 | 162 | 1.0 | 3.0 | 0.00 | 0.22 | 0.15 | 98 | 1013.7 |
| 20260508123504 | 41 | 162 | 1.0 | 6.0 | 0.00 | 0.22 | 0.15 | 99 | 1013.7 |
| 20260508123004 | 40 | 162 | 0.0 | 6.0 | 0.00 | 0.22 | 0.15 | 99 | 1013.7 |
| 20260508122504 | 40 | 162 | 0.0 | 1.0 | 0.00 | 0.22 | 0.15 | 98 | 1013.7 |
| 20260508122003 | 39 | 160 | 0.0 | 1.0 | 0.00 | 0.22 | 0.15 | 98 | 1013.7 |
| 20260508121504 | 39 | 161 | 0.0 | 3.0 | 0.00 | 0.22 | 0.15 | 98 | 1013.6 |
| 20260508121004 | 38 | 161 | 0.0 | 3.0 | 0.00 | 0.22 | 0.15 | 98 | 1013.6 |
| 20260508120504 | 38 | 159 | 0.0 | 3.0 | 0.00 | 0.22 | 0.15 | 98 | 1013.5 |
| 20260508120004 | 38 | 158 | 0.0 | 3.0 | 0.00 | 0.22 | 0.15 | 98 | 1013.5 |
| 20260508115504 | 38 | 159 | 0.0 | 1.0 | 0.00 | 0.22 | 0.15 | 98 | 1013.4 |
| 20260508115004 | 37 | 0 | 0.0 | 0.0 | 0.00 | 0.22 | 0.15 | 97 | 1013.4 |
| 20260508114504 | 37 | 159 | 0.0 | 3.0 | 0.00 | 0.22 | 0.15 | 97 | 1013.6 |
| 20260508114004 | 37 | 159 | 0.0 | 3.0 | 0.00 | 0.22 | 0.15 | 97 | 1013.5 |
| 20260508113504 | 37 | 159 | 0.0 | 1.0 | 0.00 | 0.22 | 0.15 | 97 | 1013.5 |
| 20260508113004 | 37 | 159 | 0.0 | 1.0 | 0.00 | 0.22 | 0.15 | 97 | 1013.6 |
| 20260508112524 | 37 | 159 | 0.0 | 1.0 | 0.00 | 0.22 | 0.15 | 98 | 1013.6 |
| 20260508112004 | 37 | 158 | 0.0 | 1.0 | 0.00 | 0.22 | 0.15 | 97 | 1013.6 |
| 20260508111504 | 37 | 158 | 0.0 | 1.0 | 0.00 | 0.22 | 0.15 | 97 | 1013.5 |
| 20260508111003 | 37 | 158 | 0.0 | 1.0 | 0.00 | 0.22 | 0.15 | 97 | 1013.5 |
| 20260508110503 | 37 | 158 | 0.0 | 3.0 | 0.00 | 0.22 | 0.15 | 97 | 1013.5 |
| 20260508110004 | 37 | 158 | 0.0 | 3.0 | 0.00 | 0.22 | 0.15 | 97 | 1013.6 |
| 20260508105503 | 37 | 159 | 0.0 | 1.0 | 0.00 | 0.22 | 0.15 | 97 | 1013.4 |
| 20260508105003 | 37 | 159 | 0.0 | 1.0 | 0.00 | 0.22 | 0.15 | 97 | 1013.5 |
| 20260508104504 | 37 | 0 | 0.0 | 0.0 | 0.00 | 0.22 | 0.15 | 97 | 1013.3 |
| 20260508104004 | 37 | 0 | 0.0 | 0.0 | 0.00 | 0.22 | 0.15 | 97 | 1013.2 |
| 20260508103503 | 37 | 0 | 0.0 | 0.0 | 0.00 | 0.22 | 0.15 | 97 | 1013.2 |
| 20260508103004 | 37 | 0 | 0.0 | 0.0 | 0.00 | 0.22 | 0.15 | 97 | 1013.2 |
| 20260508102503 | 37 | 0 | 0.0 | 0.0 | 0.00 | 0.22 | 0.15 | 96 | 1013.2 |
| 20260508102025 | 37 | 0 | 0.0 | 0.0 | 0.00 | 0.22 | 0.15 | 96 | 1013.2 |
| 20260508101503 | 37 | 0 | 0.0 | 0.0 | 0.00 | 0.22 | 0.15 | 96 | 1013.0 |
| 20260508101024 | 37 | 0 | 0.0 | 0.0 | 0.00 | 0.22 | 0.15 | 97 | 1013.1 |
| 20260508100504 | 37 | 0 | 0.0 | 0.0 | 0.00 | 0.22 | 0.15 | 97 | 1013.1 |
| 20260508100004 | 37 | 0 | 0.0 | 0.0 | 0.00 | 0.22 | 0.15 | 96 | 1013.1 |
| 20260508095503 | 37 | 159 | 0.0 | 1.0 | 0.00 | 0.22 | 0.15 | 96 | 1013.0 |
| 20260508095004 | 38 | 159 | 0.0 | 1.0 | 0.00 | 0.22 | 0.15 | 97 | 1013.1 |
| 20260508094504 | 38 | 0 | 0.0 | 0.0 | 0.01 | 0.22 | 0.15 | 97 | 1013.1 |
| 20260508094003 | 38 | 0 | 0.0 | 0.0 | 0.01 | 0.22 | 0.15 | 97 | 1013.0 |
| 20260508093503 | 38 | 0 | 0.0 | 0.0 | 0.01 | 0.22 | 0.15 | 97 | 1013.1 |
| 20260508093003 | 38 | 0 | 0.0 | 0.0 | 0.01 | 0.22 | 0.15 | 97 | 1013.1 |
| 20260508092503 | 38 | 0 | 0.0 | 0.0 | 0.01 | 0.22 | 0.15 | 97 | 1012.9 |
| 20260508092003 | 38 | 0 | 0.0 | 0.0 | 0.01 | 0.22 | 0.15 | 97 | 1012.9 |
| 20260508091503 | 38 | 0 | 0.0 | 0.0 | 0.01 | 0.22 | 0.15 | 97 | 1012.9 |
| 20260508091004 | 38 | 0 | 0.0 | 0.0 | 0.01 | 0.22 | 0.15 | 97 | 1012.9 |
| 20260508090503 | 38 | 0 | 0.0 | 0.0 | 0.01 | 0.22 | 0.15 | 97 | 1013.0 |
| 20260508090004 | 38 | 0 | 0.0 | 0.0 | 0.01 | 0.22 | 0.15 | 97 | 1012.9 |
| 20260508085503 | 38 | 0 | 0.0 | 0.0 | 0.01 | 0.22 | 0.15 | 97 | 1012.9 |
| 20260508085003 | 38 | 0 | 0.0 | 0.0 | 0.01 | 0.22 | 0.15 | 97 | 1012.9 |
| 20260508084503 | 38 | 0 | 0.0 | 0.0 | 0.00 | 0.21 | 0.14 | 97 | 1012.9 |
| 20260508084003 | 39 | 0 | 0.0 | 0.0 | 0.00 | 0.21 | 0.14 | 97 | 1012.9 |
| 20260508083503 | 39 | 0 | 0.0 | 0.0 | 0.00 | 0.21 | 0.14 | 96 | 1012.8 |
| 20260508083003 | 39 | 0 | 0.0 | 0.0 | 0.00 | 0.21 | 0.14 | 96 | 1012.8 |
| 20260508082503 | 39 | 158 | 0.0 | 1.0 | 0.00 | 0.21 | 0.14 | 96 | 1012.7 |
| 20260508082003 | 39 | 159 | 0.0 | 1.0 | 0.00 | 0.21 | 0.14 | 96 | 1012.8 |
| 20260508081504 | 39 | 159 | 0.0 | 1.0 | 0.00 | 0.21 | 0.14 | 96 | 1012.5 |
| 20260508081003 | 39 | 159 | 0.0 | 1.0 | 0.00 | 0.21 | 0.14 | 96 | 1012.6 |
| 20260508080524 | 39 | 159 | 0.0 | 3.0 | 0.00 | 0.21 | 0.14 | 96 | 1012.7 |
| 20260508080004 | 39 | 159 | 0.0 | 3.0 | 0.00 | 0.21 | 0.14 | 96 | 1012.6 |
| 20260508075503 | 39 | 149 | 0.0 | 3.0 | 0.00 | 0.21 | 0.14 | 96 | 1012.7 |
| 20260508075003 | 39 | 144 | 0.0 | 3.0 | 0.00 | 0.21 | 0.14 | 96 | 1012.7 |
| 20260508074503 | 39 | 136 | 0.0 | 1.0 | 0.00 | 0.21 | 0.14 | 96 | 1012.7 |
| 20260508074003 | 39 | 136 | 0.0 | 1.0 | 0.00 | 0.21 | 0.14 | 96 | 1012.5 |
| 20260508073524 | 40 | 136 | 0.0 | 1.0 | 0.00 | 0.21 | 0.14 | 96 | 1012.6 |
| 20260508073003 | 40 | 0 | 0.0 | 0.0 | 0.00 | 0.21 | 0.14 | 96 | 1012.6 |
| 20260508072503 | 40 | 136 | 0.0 | 1.0 | 0.00 | 0.21 | 0.14 | 96 | 1012.6 |
| 20260508072004 | 40 | 136 | 0.0 | 1.0 | 0.00 | 0.21 | 0.14 | 96 | 1012.7 |
| 20260508071503 | 40 | 136 | 0.0 | 1.0 | 0.00 | 0.21 | 0.14 | 96 | 1012.7 |
| 20260508071003 | 40 | 136 | 0.0 | 1.0 | 0.00 | 0.21 | 0.14 | 96 | 1012.7 |
| 20260508070524 | 40 | 136 | 0.0 | 1.0 | 0.00 | 0.21 | 0.14 | 96 | 1012.7 |
| 20260508070004 | 40 | 0 | 0.0 | 0.0 | 0.00 | 0.21 | 0.14 | 96 | 1012.5 |
| 20260508065503 | 40 | 0 | 0.0 | 0.0 | 0.00 | 0.21 | 0.14 | 96 | 1012.6 |
| 20260508065004 | 40 | 0 | 0.0 | 0.0 | 0.00 | 0.21 | 0.14 | 95 | 1012.6 |
| 20260508064504 | 40 | 0 | 0.0 | 0.0 | 0.00 | 0.21 | 0.14 | 95 | 1012.5 |
| 20260508064003 | 40 | 0 | 0.0 | 0.0 | 0.00 | 0.21 | 0.14 | 95 | 1012.5 |
| 20260508063503 | 40 | 136 | 0.0 | 1.0 | 0.00 | 0.21 | 0.14 | 95 | 1012.5 |
| 20260508063003 | 40 | 136 | 0.0 | 1.0 | 0.00 | 0.21 | 0.14 | 95 | 1012.3 |
| 20260508062504 | 40 | 0 | 0.0 | 0.0 | 0.00 | 0.21 | 0.14 | 95 | 1012.4 |
| 20260508062003 | 40 | 0 | 0.0 | 0.0 | 0.00 | 0.21 | 0.14 | 95 | 1012.4 |
| 20260508061503 | 40 | 0 | 0.0 | 0.0 | 0.00 | 0.21 | 0.14 | 95 | 1012.5 |
| 20260508061003 | 41 | 0 | 0.0 | 0.0 | 0.00 | 0.21 | 0.14 | 95 | 1012.6 |
| 20260508060503 | 41 | 136 | 0.0 | 1.0 | 0.00 | 0.21 | 0.14 | 95 | 1012.5 |
| 20260508060003 | 41 | 136 | 0.0 | 1.0 | 0.00 | 0.21 | 0.14 | 95 | 1012.7 |
| 20260508055503 | 41 | 0 | 0.0 | 0.0 | 0.01 | 0.21 | 0.14 | 95 | 1012.7 |
| 20260508055004 | 41 | 136 | 0.0 | 1.0 | 0.02 | 0.21 | 0.14 | 95 | 1012.8 |
| 20260508054503 | 41 | 136 | 0.0 | 1.0 | 0.02 | 0.21 | 0.14 | 94 | 1012.8 |
| 20260508054003 | 41 | 0 | 0.0 | 0.0 | 0.03 | 0.21 | 0.14 | 94 | 1012.8 |
| 20260508053504 | 41 | 0 | 0.0 | 0.0 | 0.04 | 0.21 | 0.14 | 94 | 1012.7 |
| 20260508053003 | 41 | 0 | 0.0 | 0.0 | 0.05 | 0.21 | 0.14 | 94 | 1012.6 |
| 20260508052505 | 42 | 0 | 0.0 | 0.0 | 0.06 | 0.21 | 0.14 | 94 | 1012.6 |
| 20260508052005 | 42 | 136 | 0.0 | 1.0 | 0.07 | 0.21 | 0.14 | 94 | 1012.7 |
| 20260508051505 | 42 | 134 | 0.0 | 4.0 | 0.08 | 0.21 | 0.14 | 94 | 1012.7 |
| 20260508051005 | 42 | 148 | 1.0 | 4.0 | 0.10 | 0.21 | 0.14 | 94 | 1012.8 |
| 20260508050505 | 42 | 147 | 1.0 | 4.0 | 0.13 | 0.21 | 0.14 | 94 | 1012.6 |
| 20260508050005 | 42 | 119 | 1.0 | 4.0 | 0.14 | 0.21 | 0.14 | 94 | 1012.8 |
| 20260508045526 | 42 | 312 | 1.0 | 4.0 | 0.14 | 0.20 | 0.13 | 94 | 1013.0 |
| 20260508045005 | 42 | 289 | 1.0 | 6.0 | 0.14 | 0.19 | 0.12 | 94 | 1013.3 |
| 20260508044505 | 42 | 285 | 1.0 | 10.0 | 0.15 | 0.19 | 0.12 | 94 | 1013.3 |
| 20260508044026 | 43 | 285 | 1.0 | 10.0 | 0.16 | 0.18 | 0.11 | 93 | 1013.3 |
| 20260508043505 | 43 | 261 | 1.0 | 4.0 | 0.16 | 0.17 | 0.10 | 93 | 1013.3 |
| 20260508043005 | 43 | 264 | 1.0 | 6.0 | 0.16 | 0.16 | 0.09 | 92 | 1013.0 |
| 20260508042505 | 43 | 308 | 1.0 | 6.0 | 0.15 | 0.15 | 0.08 | 92 | 1012.9 |
| 20260508042005 | 43 | 316 | 1.0 | 6.0 | 0.14 | 0.14 | 0.07 | 92 | 1013.0 |
| 20260508041505 | 43 | 305 | 1.0 | 6.0 | 0.13 | 0.13 | 0.06 | 91 | 1012.9 |
| 20260508041005 | 44 | 302 | 3.0 | 16.0 | 0.11 | 0.11 | 0.04 | 90 | 1013.0 |
| 20260508040526 | 44 | 298 | 4.0 | 16.0 | 0.08 | 0.08 | 0.03 | 89 | 1012.9 |
| 20260508040005 | 45 | 318 | 3.0 | 12.0 | 0.07 | 0.07 | 0.00 | 90 | 1012.9 |
| 20260508035505 | 45 | 10 | 1.0 | 4.0 | 0.06 | 0.06 | 0.06 | 89 | 1012.6 |
| 20260508035006 | 45 | 27 | 1.0 | 6.0 | 0.05 | 0.05 | 0.05 | 87 | 1012.3 |
| 20260508034505 | 46 | 6 | 1.0 | 6.0 | 0.04 | 0.04 | 0.04 | 86 | 1012.3 |
| 20260508034026 | 46 | 346 | 1.0 | 6.0 | 0.02 | 0.02 | 0.02 | 85 | 1012.3 |
| 20260508033505 | 47 | 329 | 1.0 | 6.0 | 0.01 | 0.01 | 0.01 | 83 | 1012.2 |
| 20260508033026 | 47 | 328 | 0.0 | 3.0 | 0.00 | 0.00 | 0.00 | 80 | 1011.9 |
| 20260508032505 | 48 | 334 | 0.0 | 3.0 | 0.00 | 0.00 | 0.00 | 76 | 1011.7 |
| 20260508032004 | 48 | 0 | 0.0 | 0.0 | 0.00 | 0.00 | 0.00 | 73 | 1011.4 |
| 20260508031505 | 48 | 0 | 0.0 | 0.0 | 0.00 | 0.00 | 0.00 | 72 | 1011.2 |
| 20260508031005 | 48 | 0 | 0.0 | 0.0 | 0.00 | 0.00 | 0.00 | 71 | 1011.0 |
| 20260508030505 | 48 | 0 | 0.0 | 0.0 | 0.00 | 0.00 | 0.00 | 72 | 1011.0 |
| 20260508030005 | 48 | 0 | 0.0 | 0.0 | 0.00 | 0.00 | 0.00 | 74 | 1010.9 |
| 20260508025505 | 48 | 0 | 0.0 | 0.0 | 0.00 | 0.00 | 0.00 | 72 | 1010.8 |
| 20260508025005 | 48 | 99 | 0.0 | 1.0 | 0.00 | 0.00 | 0.00 | 72 | 1010.7 |
| 20260508024505 | 48 | 99 | 0.0 | 1.0 | 0.00 | 0.00 | 0.00 | 72 | 1010.7 |
| 20260508024005 | 48 | 60 | 0.0 | 3.0 | 0.00 | 0.00 | 0.00 | 73 | 1010.8 |
| 20260508023526 | 48 | 61 | 0.0 | 3.0 | 0.00 | 0.00 | 0.00 | 71 | 1010.8 |
| 20260508023026 | 48 | 62 | 0.0 | 3.0 | 0.00 | 0.00 | 0.00 | 68 | 1010.8 |
| 20260508022504 | 48 | 248 | 0.0 | 1.0 | 0.00 | 0.00 | 0.00 | 70 | 1010.8 |
| 20260508022005 | 48 | 248 | 0.0 | 1.0 | 0.00 | 0.00 | 0.00 | 71 | 1010.7 |
| 20260508021504 | 48 | 360 | 0.0 | 3.0 | 0.00 | 0.00 | 0.00 | 71 | 1010.7 |
| 20260508021005 | 48 | 7 | 0.0 | 4.0 | 0.00 | 0.00 | 0.00 | 72 | 1010.8 |
| 20260508020504 | 48 | 343 | 0.0 | 4.0 | 0.00 | 0.00 | 0.00 | 71 | 1010.7 |
| 20260508020005 | 48 | 315 | 0.0 | 4.0 | 0.00 | 0.00 | 0.00 | 71 | 1010.6 |
| 20260508015505 | 48 | 335 | 0.0 | 3.0 | 0.00 | 0.00 | 0.00 | 72 | 1010.6 |
| 20260508015005 | 48 | 360 | 0.0 | 1.0 | 0.00 | 0.00 | 0.00 | 67 | 1010.5 |
| 20260508014505 | 48 | 358 | 0.0 | 3.0 | 0.00 | 0.00 | 0.00 | 67 | 1010.5 |
| 20260508014026 | 48 | 358 | 0.0 | 3.0 | 0.00 | 0.00 | 0.00 | 68 | 1010.5 |
| 20260508013525 | 48 | 355 | 0.0 | 1.0 | 0.00 | 0.00 | 0.00 | 69 | 1010.5 |
| 20260508013005 | 48 | 355 | 0.0 | 1.0 | 0.00 | 0.00 | 0.00 | 70 | 1010.4 |
| 20260508012504 | 48 | 355 | 0.0 | 1.0 | 0.00 | 0.00 | 0.00 | 66 | 1010.4 |
| 20260508012004 | 48 | 355 | 0.0 | 1.0 | 0.00 | 0.00 | 0.00 | 68 | 1010.4 |
| 20260508011504 | 49 | 355 | 0.0 | 1.0 | 0.00 | 0.00 | 0.00 | 67 | 1010.4 |
| 20260508011005 | 49 | 355 | 0.0 | 1.0 | 0.00 | 0.00 | 0.00 | 66 | 1010.3 |
| 20260508010505 | 49 | 355 | 0.0 | 3.0 | 0.00 | 0.00 | 0.00 | 66 | 1010.2 |
| 20260508010005 | 49 | 355 | 0.0 | 3.0 | 0.00 | 0.00 | 0.00 | 67 | 1010.3 |
| 20260508005504 | 49 | 355 | 0.0 | 3.0 | 0.00 | 0.00 | 0.00 | 67 | 1010.1 |
| 20260508005005 | 49 | 0 | 0.0 | 0.0 | 0.00 | 0.00 | 0.00 | 68 | 1010.1 |
| 20260508004504 | 50 | 355 | 0.0 | 3.0 | 0.00 | 0.00 | 0.00 | 67 | 1010.2 |
| 20260508004025 | 50 | 355 | 0.0 | 3.0 | 0.00 | 0.00 | 0.00 | 68 | 1010.0 |
| 20260508003504 | 50 | 355 | 0.0 | 1.0 | 0.00 | 0.00 | 0.00 | 66 | 1010.0 |
| 20260508003005 | 50 | 355 | 0.0 | 1.0 | 0.00 | 0.00 | 0.00 | 62 | 1010.0 |
| 20260508002504 | 51 | 355 | 0.0 | 1.0 | 0.00 | 0.00 | 0.00 | 65 | 1009.8 |
| 20260508002004 | 51 | 355 | 0.0 | 1.0 | 0.00 | 0.00 | 0.00 | 63 | 1009.9 |
| 20260508001504 | 51 | 355 | 0.0 | 3.0 | 0.00 | 0.00 | 0.00 | 63 | 1009.8 |
| 20260508001025 | 52 | 355 | 0.0 | 3.0 | 0.00 | 0.00 | 0.00 | 61 | 1009.9 |
| 20260508000504 | 52 | 355 | 0.0 | 1.0 | 0.00 | 0.00 | 0.00 | 63 | 1009.8 |
| 20260508000004 | 52 | 0 | 0.0 | 0.0 | 0.00 | 0.00 | 0.00 | 61 | 1009.8 |
| 20260507235504 | 53 | 0 | 0.0 | 0.0 | 0.00 | 0.00 | 0.00 | 64 | 1009.8 |